Time,TemperatureF,DewpointF,PressureIn,WindDirection,WindDirectionDegrees,WindSpeedMPH,WindSpeedGustMPH,Humidity,HourlyPrecipIn,Conditions,Clouds,dailyrainin,SoftwareType,DateUTC
2013-04-08 00:02:00,-999.0,-99.9,29.80,NNE,21,9.0,12.0,-999,-99.99,,,-99.99,,2013-04-08 08:02:00,
2013-04-08 00:12:00,-999.0,-99.9,29.80,NNE,21,9.0,12.0,-999,-99.99,,,-99.99,,2013-04-08 08:12:00,
2013-04-08 00:22:00,-999.0,-99.9,29.80,NNE,21,9.0,12.0,-999,-99.99,,,-99.99,,2013-04-08 08:22:00,
2013-04-08 00:33:00,-999.0,-99.9,29.80,NNE,21,9.0,12.0,-999,-99.99,,,-99.99,,2013-04-08 08:33:00,
2013-04-08 00:43:00,-999.0,-99.9,29.80,NNE,20,9.0,11.0,-999,-99.99,,,-99.99,,2013-04-08 08:43:00,
2013-04-08 00:52:00,20.0,-99.9,29.80,NNE,20,9.0,12.0,-999,-99.99,,,-99.99,,2013-04-08 08:52:00,
2013-04-08 01:03:00,-999.0,-99.9,29.80,NNE,23,9.0,12.0,-999,-99.99,,,-99.99,,2013-04-08 09:03:00,
2013-04-08 01:12:00,20.0,-99.9,29.80,NNE,27,9.0,12.0,-999,-99.99,,,-99.99,,2013-04-08 09:12:00,
2013-04-08 01:23:00,-999.0,-99.9,29.79,NNE,26,11.0,14.0,-999,-99.99,,,-99.99,,2013-04-08 09:23:00,
2013-04-08 01:34:00,-999.0,-99.9,29.79,NNE,29,10.0,13.0,-999,-99.99,,,-99.99,,2013-04-08 09:34:00,
2013-04-08 01:43:00,-999.0,-99.9,29.78,NNE,31,9.0,13.0,-999,-99.99,,,-99.99,,2013-04-08 09:43:00,
2013-04-08 01:53:00,19.0,-99.9,29.78,NNE,31,9.0,11.0,-999,-99.99,,,-99.99,,2013-04-08 09:53:00,
2013-04-08 02:03:00,-999.0,-99.9,29.78,NNE,27,9.0,11.0,-999,-99.99,,,-99.99,,2013-04-08 10:03:00,
2013-04-08 02:13:00,20.0,-99.9,29.78,NNE,20,9.0,11.0,-999,-99.99,,,-99.99,,2013-04-08 10:13:00,
2013-04-08 02:23:00,-999.0,-99.9,29.78,NNE,33,8.0,11.0,-999,-99.99,,,-99.99,,2013-04-08 10:23:00,
2013-04-08 02:33:00,-999.0,-99.9,29.78,NNE,30,9.0,11.0,-999,-99.99,,,-99.99,,2013-04-08 10:33:00,
2013-04-08 02:43:00,-999.0,-99.9,29.78,NE,38,9.0,13.0,-999,-99.99,,,-99.99,,2013-04-08 10:43:00,
2013-04-08 02:53:00,19.0,-99.9,29.78,NE,38,9.0,12.0,-999,-99.99,,,-99.99,,2013-04-08 10:53:00,
2013-04-08 03:03:00,-999.0,-99.9,29.78,NE,40,9.0,11.0,-999,-99.99,,,-99.99,,2013-04-08 11:03:00,
2013-04-08 03:12:00,-999.0,-99.9,29.78,NNE,29,7.0,12.0,-999,-99.99,,,-99.99,,2013-04-08 11:12:00,
2013-04-08 03:23:00,19.0,-99.9,29.78,NE,41,9.0,12.0,-999,-99.99,,,-99.99,,2013-04-08 11:23:00,
2013-04-08 03:33:00,-999.0,-99.9,29.77,NE,36,9.0,12.0,-999,-99.99,,,-99.99,,2013-04-08 11:33:00,
2013-04-08 03:43:00,-999.0,-99.9,29.77,NE,38,9.0,11.0,-999,-99.99,,,-99.99,,2013-04-08 11:43:00,
2013-04-08 03:53:00,-999.0,-99.9,29.77,NNE,30,8.0,11.0,-999,-99.99,,,-99.99,,2013-04-08 11:53:00,
2013-04-08 04:03:00,-999.0,-99.9,29.77,NNE,30,8.0,12.0,-999,-99.99,,,-99.99,,2013-04-08 12:03:00,
2013-04-08 04:12:00,-999.0,-99.9,29.77,NE,36,9.0,13.0,-999,-99.99,,,-99.99,,2013-04-08 12:12:00,
2013-04-08 04:23:00,19.0,-99.9,29.76,NNE,32,8.0,12.0,-999,-99.99,,,-99.99,,2013-04-08 12:23:00,
2013-04-08 04:33:00,-999.0,-99.9,29.76,NE,38,8.0,11.0,-999,-99.99,,,-99.99,,2013-04-08 12:33:00,
2013-04-08 04:43:00,19.0,-99.9,29.76,NNE,29,8.0,11.0,-999,-99.99,,,-99.99,,2013-04-08 12:43:00,
2013-04-08 04:53:00,-999.0,-99.9,29.76,NNE,26,9.0,12.0,-999,-99.99,,,-99.99,,2013-04-08 12:53:00,
2013-04-08 05:03:00,-999.0,-99.9,29.76,NNE,16,10.0,13.0,-999,-99.99,,,-99.99,,2013-04-08 13:03:00,
2013-04-08 05:12:00,-999.0,-99.9,29.75,NNE,32,8.0,10.0,-999,-99.99,,,-99.99,,2013-04-08 13:12:00,
2013-04-08 05:22:00,18.0,-99.9,29.75,NNE,29,6.0,10.0,-999,-99.99,,,-99.99,,2013-04-08 13:22:00,
2013-04-08 05:33:00,-999.0,-99.9,29.75,NNE,20,8.0,10.0,-999,-99.99,,,-99.99,,2013-04-08 13:33:00,
2013-04-08 05:43:00,18.0,-99.9,29.75,NNE,15,7.0,9.0,-999,-99.99,,,-99.99,,2013-04-08 13:43:00,
2013-04-08 05:53:00,-999.0,-99.9,29.75,NNE,24,8.0,10.0,-999,-99.99,,,-99.99,,2013-04-08 13:53:00,
2013-04-08 06:03:00,-999.0,-99.9,29.74,NNE,18,6.0,9.0,-999,-99.99,,,-99.99,,2013-04-08 14:03:00,
2013-04-08 06:12:00,-999.0,-99.9,29.74,NNE,17,8.0,10.0,-999,-99.99,,,-99.99,,2013-04-08 14:12:00,
2013-04-08 06:22:00,-999.0,-99.9,29.74,NNE,18,9.0,11.0,-999,-99.99,,,-99.99,,2013-04-08 14:22:00,
2013-04-08 06:33:00,-999.0,-99.9,29.73,NNE,26,6.0,10.0,-999,-99.99,,,-99.99,,2013-04-08 14:33:00,
2013-04-08 06:43:00,-999.0,-99.9,29.73,NNE,21,8.0,10.0,-999,-99.99,,,-99.99,,2013-04-08 14:43:00,
2013-04-08 06:53:00,17.0,-99.9,29.73,NNE,32,8.0,10.0,-999,-99.99,,,-99.99,,2013-04-08 14:53:00,
2013-04-08 07:02:00,-999.0,-99.9,29.73,NNE,27,8.0,11.0,-999,-99.99,,,-99.99,,2013-04-08 15:02:00,
2013-04-08 07:12:00,17.0,-99.9,29.73,NNE,31,9.0,12.0,-999,-99.99,,,-99.99,,2013-04-08 15:12:00,
2013-04-08 07:22:00,-999.0,-99.9,29.73,NNE,27,7.0,10.0,-999,-99.99,,,-99.99,,2013-04-08 15:22:00,
2013-04-08 07:35:00,-999.0,-99.9,29.72,NNE,19,8.0,11.0,-999,-99.99,,,-99.99,,2013-04-08 15:35:00,
2013-04-08 07:43:00,-999.0,-99.9,29.72,NNE,22,8.0,12.0,-999,-99.99,,,-99.99,,2013-04-08 15:43:00,
2013-04-08 07:53:00,17.0,-99.9,29.72,NNE,19,8.0,11.0,-999,-99.99,,,-99.99,,2013-04-08 15:53:00,
2013-04-08 08:03:00,-999.0,-99.9,29.72,NNE,23,8.0,12.0,-999,-99.99,,,-99.99,,2013-04-08 16:03:00,
2013-04-08 08:13:00,17.0,-99.9,29.72,NNE,29,8.0,11.0,-999,-99.99,,,-99.99,,2013-04-08 16:13:00,
2013-04-08 08:23:00,-999.0,-99.9,29.72,NNE,28,9.0,12.0,-999,-99.99,,,-99.99,,2013-04-08 16:23:00,
2013-04-08 08:33:00,-999.0,-99.9,29.72,NNE,28,9.0,12.0,-999,-99.99,,,-99.99,,2013-04-08 16:33:00,
2013-04-08 08:42:00,-999.0,-99.9,29.72,NNE,25,10.0,13.0,-999,-99.99,,,-99.99,,2013-04-08 16:42:00,
2013-04-08 08:54:00,17.0,-99.9,29.71,NNE,20,8.0,13.0,-999,-99.99,,,-99.99,,2013-04-08 16:54:00,
2013-04-08 09:03:00,-999.0,-99.9,29.71,NNE,21,10.0,13.0,-999,-99.99,,,-99.99,,2013-04-08 17:03:00,
2013-04-08 09:12:00,17.0,-99.9,29.71,NNE,17,9.0,13.0,-999,-99.99,,,-99.99,,2013-04-08 17:12:00,
2013-04-08 09:23:00,-999.0,-99.9,29.70,NNE,17,10.0,13.0,-999,-99.99,,,-99.99,,2013-04-08 17:23:00,
2013-04-08 09:33:00,-999.0,-99.9,29.70,NNE,15,12.0,14.0,-999,-99.99,,,-99.99,,2013-04-08 17:33:00,
2013-04-08 09:45:00,-999.0,-99.9,29.70,NNE,15,11.0,15.0,-999,-99.99,,,-99.99,,2013-04-08 17:45:00,
2013-04-08 09:53:00,18.0,-99.9,29.70,NNE,18,11.0,14.0,-999,-99.99,,,-99.99,,2013-04-08 17:53:00,
2013-04-08 10:02:00,-999.0,-99.9,29.69,NNE,17,11.0,13.0,-999,-99.99,,,-99.99,,2013-04-08 18:02:00,
2013-04-08 10:12:00,-999.0,-99.9,29.69,NNE,12,14.0,17.0,-999,-99.99,,,-99.99,,2013-04-08 18:12:00,
2013-04-08 10:23:00,18.0,-99.9,29.68,North,11,14.0,16.0,-999,-99.99,,,-99.99,,2013-04-08 18:23:00,
2013-04-08 10:32:00,-999.0,-99.9,29.68,NNE,17,12.0,16.0,-999,-99.99,,,-99.99,,2013-04-08 18:32:00,
2013-04-08 10:43:00,-999.0,-99.9,29.68,NNE,15,11.0,16.0,-999,-99.99,,,-99.99,,2013-04-08 18:43:00,
2013-04-08 10:53:00,-999.0,-99.9,29.67,NNE,19,11.0,15.0,-999,-99.99,,,-99.99,,2013-04-08 18:53:00,
2013-04-08 11:03:00,-999.0,-99.9,29.67,NNE,17,11.0,14.0,-999,-99.99,,,-99.99,,2013-04-08 19:03:00,
2013-04-08 11:13:00,-999.0,-99.9,29.67,North,11,11.0,16.0,-999,-99.99,,,-99.99,,2013-04-08 19:13:00,
2013-04-08 11:23:00,19.0,-99.9,29.67,North,11,11.0,15.0,-999,-99.99,,,-99.99,,2013-04-08 19:23:00,
2013-04-08 11:34:00,-999.0,-99.9,29.66,NNE,28,10.0,13.0,-999,-99.99,,,-99.99,,2013-04-08 19:34:00,
2013-04-08 11:43:00,-999.0,-99.9,29.66,North,2,12.0,15.0,-999,-99.99,,,-99.99,,2013-04-08 19:43:00,
2013-04-08 11:53:00,-999.0,-99.9,29.65,NNE,14,12.0,18.0,-999,-99.99,,,-99.99,,2013-04-08 19:53:00,
2013-04-08 12:02:00,-999.0,-99.9,29.65,North,9,13.0,17.0,-999,-99.99,,,-99.99,,2013-04-08 20:02:00,
2013-04-08 12:12:00,-999.0,-99.9,29.64,North,5,13.0,16.0,-999,-99.99,,,-99.99,,2013-04-08 20:12:00,
2013-04-08 12:23:00,20.0,-99.9,29.64,North,5,15.0,17.0,-999,-99.99,,,-99.99,,2013-04-08 20:23:00,
2013-04-08 12:33:00,-999.0,-99.9,29.64,North,4,12.0,17.0,-999,-99.99,,,-99.99,,2013-04-08 20:33:00,
2013-04-08 12:43:00,-999.0,-99.9,29.63,North,9,12.0,17.0,-999,-99.99,,,-99.99,,2013-04-08 20:43:00,
2013-04-08 12:53:00,-999.0,-99.9,29.63,North,4,13.0,16.0,-999,-99.99,,,-99.99,,2013-04-08 20:53:00,
2013-04-08 13:02:00,-999.0,-99.9,29.62,North,1,15.0,17.0,-999,-99.99,,,-99.99,,2013-04-08 21:02:00,
2013-04-08 13:12:00,-999.0,-99.9,29.62,North,9,17.0,20.0,-999,-99.99,,,-99.99,,2013-04-08 21:12:00,
2013-04-08 13:22:00,20.0,-99.9,29.62,North,1,17.0,20.0,-999,-99.99,,,-99.99,,2013-04-08 21:22:00,
2013-04-08 13:33:00,-999.0,-99.9,29.61,North,3,15.0,20.0,-999,-99.99,,,-99.99,,2013-04-08 21:33:00,
2013-04-08 13:43:00,-999.0,-99.9,29.61,North,359,17.0,20.0,-999,-99.99,,,-99.99,,2013-04-08 21:43:00,
2013-04-08 13:53:00,-999.0,-99.9,29.60,North,7,12.0,18.0,-999,-99.99,,,-99.99,,2013-04-08 21:53:00,
2013-04-08 14:03:00,-999.0,-99.9,29.60,North,3,13.0,19.0,-999,-99.99,,,-99.99,,2013-04-08 22:03:00,
2013-04-08 14:13:00,-999.0,-99.9,29.59,NNE,13,12.0,19.0,-999,-99.99,,,-99.99,,2013-04-08 22:13:00,
2013-04-08 14:23:00,21.0,-99.9,29.58,North,357,16.0,20.0,-999,-99.99,,,-99.99,,2013-04-08 22:23:00,
2013-04-08 14:32:00,21.0,-99.9,29.58,North,357,16.0,20.0,-999,-99.99,,,-99.99,,2013-04-08 22:32:00,
2013-04-08 14:44:00,-999.0,-99.9,29.58,North,10,11.0,15.0,-999,-99.99,,,-99.99,,2013-04-08 22:44:00,
2013-04-08 14:53:00,-999.0,-99.9,29.57,North,-999,11.0,16.0,-999,-99.99,,,-99.99,,2013-04-08 22:53:00,
2013-04-08 15:03:00,22.0,-99.9,29.57,NNE,20,5.0,15.0,-999,-99.99,,,-99.99,,2013-04-08 23:03:00,
2013-04-08 15:13:00,22.0,-99.9,29.56,NNW,339,6.0,12.0,-999,-99.99,,,-99.99,,2013-04-08 23:13:00,
2013-04-08 15:22:00,22.0,-99.9,29.56,NNW,339,6.0,12.0,-999,-99.99,,,-99.99,,2013-04-08 23:22:00,
2013-04-08 15:32:00,-999.0,-99.9,29.55,NNW,348,5.0,10.0,-999,-99.99,,,-99.99,,2013-04-08 23:32:00,
2013-04-08 15:43:00,-999.0,-99.9,29.54,North,355,8.0,11.0,-999,-99.99,,,-99.99,,2013-04-08 23:43:00,
2013-04-08 15:52:00,22.0,-99.9,29.54,North,353,8.0,10.0,-999,-99.99,,,-99.99,,2013-04-08 23:52:00,
2013-04-08 16:02:00,-999.0,-99.9,29.53,North,352,8.0,11.0,-999,-99.99,,,-99.99,,2013-04-09 00:02:00,
2013-04-08 16:13:00,-999.0,-99.9,29.53,NNW,347,10.0,11.0,-999,-99.99,,,-99.99,,2013-04-09 00:13:00,
2013-04-08 16:22:00,23.0,-99.9,29.53,North,355,6.0,11.0,-999,-99.99,,,-99.99,,2013-04-09 00:22:00,
2013-04-08 16:32:00,-999.0,-99.9,29.52,North,1,8.0,12.0,-999,-99.99,,,-99.99,,2013-04-09 00:32:00,
2013-04-08 16:42:00,-999.0,-99.9,29.51,North,1,8.0,10.0,-999,-99.99,,,-99.99,,2013-04-09 00:42:00,
2013-04-08 16:52:00,-999.0,-99.9,29.51,NNW,335,2.0,9.0,-999,-99.99,,,-99.99,,2013-04-09 00:52:00,
2013-04-08 17:03:00,-999.0,-99.9,29.50,NW,326,4.0,12.0,-999,-99.99,,,-99.99,,2013-04-09 01:03:00,
2013-04-08 17:12:00,-999.0,-99.9,29.49,NNW,340,4.0,11.0,-999,-99.99,,,-99.99,,2013-04-09 01:12:00,
2013-04-08 17:22:00,24.0,-99.9,29.49,West,274,1.0,8.0,-999,-99.99,,,-99.99,,2013-04-09 01:22:00,
2013-04-08 17:34:00,-999.0,-99.9,29.48,North,354,8.0,11.0,-999,-99.99,,,-99.99,,2013-04-09 01:34:00,
2013-04-08 17:42:00,23.0,-99.9,29.48,North,356,7.0,10.0,-999,-99.99,,,-99.99,,2013-04-09 01:42:00,
2013-04-08 17:53:00,-999.0,-99.9,29.47,NW,322,3.0,9.0,-999,-99.99,,,-99.99,,2013-04-09 01:53:00,
2013-04-08 18:02:00,-999.0,-99.9,29.47,North,353,9.0,11.0,-999,-99.99,,,-99.99,,2013-04-09 02:02:00,
2013-04-08 18:13:00,-999.0,-99.9,29.46,North,352,7.0,10.0,-999,-99.99,,,-99.99,,2013-04-09 02:13:00,
2013-04-08 18:22:00,24.0,-99.9,29.46,North,351,7.0,10.0,-999,-99.99,,,-99.99,,2013-04-09 02:22:00,
2013-04-08 18:33:00,-999.0,-99.9,29.45,North,354,8.0,9.0,-999,-99.99,,,-99.99,,2013-04-09 02:33:00,
2013-04-08 18:44:00,23.0,-99.9,29.45,North,8,7.0,10.0,-999,-99.99,,,-99.99,,2013-04-09 02:44:00,
2013-04-08 18:52:00,-999.0,-99.9,29.44,NNW,345,5.0,10.0,-999,-99.99,,,-99.99,,2013-04-09 02:52:00,
2013-04-08 19:02:00,-999.0,-99.9,29.44,NNW,329,3.0,9.0,-999,-99.99,,,-99.99,,2013-04-09 03:02:00,
2013-04-08 19:12:00,-999.0,-99.9,29.43,North,350,7.0,13.0,-999,-99.99,,,-99.99,,2013-04-09 03:12:00,
2013-04-08 19:22:00,25.0,-99.9,29.43,SW,229,1.0,10.0,-999,-99.99,,,-99.99,,2013-04-09 03:22:00,
2013-04-08 19:33:00,-999.0,-99.9,29.42,NNW,331,4.0,10.0,-999,-99.99,,,-99.99,,2013-04-09 03:33:00,
2013-04-08 19:43:00,25.0,-99.9,29.42,NNW,346,8.0,13.0,-999,-99.99,,,-99.99,,2013-04-09 03:43:00,
2013-04-08 19:53:00,-999.0,-99.9,29.41,North,354,10.0,12.0,-999,-99.99,,,-99.99,,2013-04-09 03:53:00,
2013-04-08 20:03:00,-999.0,-99.9,29.41,North,350,11.0,15.0,-999,-99.99,,,-99.99,,2013-04-09 04:03:00,
2013-04-08 20:13:00,-999.0,-99.9,29.40,North,351,13.0,15.0,-999,-99.99,,,-99.99,,2013-04-09 04:13:00,
2013-04-08 20:23:00,-999.0,-99.9,29.40,North,1,12.0,15.0,-999,-99.99,,,-99.99,,2013-04-09 04:23:00,
2013-04-08 20:33:00,-999.0,-99.9,29.39,North,7,12.0,15.0,-999,-99.99,,,-99.99,,2013-04-09 04:33:00,
2013-04-08 20:43:00,-999.0,-99.9,29.39,North,3,12.0,15.0,-999,-99.99,,,-99.99,,2013-04-09 04:43:00,
2013-04-08 20:53:00,-999.0,-99.9,29.39,North,3,12.0,15.0,-999,-99.99,,,-99.99,,2013-04-09 04:53:00,
2013-04-08 21:03:00,-999.0,-99.9,29.38,North,353,11.0,13.0,-999,-99.99,,,-99.99,,2013-04-09 05:03:00,
2013-04-08 21:12:00,24.0,-99.9,29.38,North,10,10.0,13.0,-999,-99.99,,,-99.99,,2013-04-09 05:12:00,
2013-04-08 21:22:00,-999.0,-99.9,29.37,North,360,16.0,18.0,-999,-99.99,,,-99.99,,2013-04-09 05:22:00,
2013-04-08 21:32:00,-999.0,-99.9,29.37,NW,321,3.0,15.0,-999,-99.99,,,-99.99,,2013-04-09 05:32:00,
2013-04-08 21:43:00,-999.0,-99.9,29.36,NW,318,2.0,9.0,-999,-99.99,,,-99.99,,2013-04-09 05:43:00,
2013-04-08 21:52:00,24.0,-99.9,29.36,ENE,71,2.0,8.0,-999,-99.99,,,-99.99,,2013-04-09 05:52:00,
2013-04-08 22:02:00,-999.0,-99.9,29.36,NW,326,2.0,6.0,-999,-99.99,,,-99.99,,2013-04-09 06:02:00,
2013-04-08 22:12:00,24.0,-99.9,29.36,NNE,18,2.0,6.0,-999,-99.99,,,-99.99,,2013-04-09 06:12:00,
2013-04-08 22:22:00,-999.0,-99.9,29.35,NNW,338,3.0,6.0,-999,-99.99,,,-99.99,,2013-04-09 06:22:00,
2013-04-08 22:32:00,-999.0,-99.9,29.34,NNW,344,3.0,7.0,-999,-99.99,,,-99.99,,2013-04-09 06:32:00,
2013-04-08 22:42:00,-999.0,-99.9,29.34,NW,311,3.0,7.0,-999,-99.99,,,-99.99,,2013-04-09 06:42:00,
2013-04-08 22:52:00,23.0,-99.9,29.34,NNW,346,2.0,6.0,-999,-99.99,,,-99.99,,2013-04-09 06:52:00,
2013-04-08 23:02:00,-999.0,-99.9,29.33,NNW,343,3.0,9.0,-999,-99.99,,,-99.99,,2013-04-09 07:02:00,
2013-04-08 23:13:00,23.0,-99.9,29.33,North,349,2.0,9.0,-999,-99.99,,,-99.99,,2013-04-09 07:13:00,
2013-04-08 23:22:00,-999.0,-99.9,29.32,NNW,327,2.0,8.0,-999,-99.99,,,-99.99,,2013-04-09 07:22:00,
2013-04-08 23:32:00,-999.0,-99.9,29.32,NNE,31,1.0,8.0,-999,-99.99,,,-99.99,,2013-04-09 07:32:00,
2013-04-08 23:42:00,-999.0,-99.9,29.31,NNW,344,3.0,7.0,-999,-99.99,,,-99.99,,2013-04-09 07:42:00,
2013-04-08 23:53:00,22.0,-99.9,29.31,NNW,331,3.0,7.0,-999,-99.99,,,-99.99,,2013-04-09 07:53:00,